User: anonymous   Login
Location: Unspecified
(0.0000°N, 0.0000°E)
Time: 09:22:50
(UTC+00:00)
Language:

YAOGAN 9B - Orbit

View from above orbital plane
View from above orbital plane
View from above satellite
View from above satellite

Ground track
Ground track

The orbit data is extracted from the following two-line orbital elements,

1 36414U 10009B   18018.71363908 -.00000034  00000-0  76799-4 0  9993
2 36414  63.3997 356.7824 0266184   4.4705 355.8612 13.45172785386931
Epoch (UTC): 18 January 2018 17:07:38
Eccentricity: 0.0266184
inclination: 63.3997°
perigee height: 891 km
apogee height: 1289 km
right ascension of ascending node: 356.7824°
argument of perigee: 4.4705°
revolutions per day: 13.45172785
mean anomaly at epoch: 355.8612°
orbit number at epoch: 38693

The dashed part of the orbit path shows where the satellite is in the earth's shadow,  

DLR